| time (UTC) | temp C | wind direction | speed KPH | gust KPH | rain 1hr cm | rain 24hr cm | rain mn cm | humidity % | barometer mb |
| 20260903223106 | 15 | 307 | 6.4 | 14.5 | 0.00 | 0.66 | 0.00 | 74 | 1011.5 |
| 20260903221530 | 15 | 277 | 3.2 | 11.3 | 0.00 | 0.69 | 0.00 | 78 | 1011.6 |
| 20260903220032 | 15 | 259 | 1.6 | 6.4 | 0.00 | 0.69 | 0.00 | 77 | 1011.7 |
| 20260903214532 | 15 | 304 | 3.2 | 9.7 | 0.00 | 0.71 | 0.00 | 77 | 1011.7 |
| 20260903213035 | 15 | 286 | 3.2 | 8.0 | 0.00 | 0.71 | 0.00 | 78 | 1011.7 |
| 20260903211536 | 15 | 283 | 4.8 | 11.3 | 0.00 | 0.71 | 0.00 | 78 | 1011.7 |
| 20260903210033 | 15 | 289 | 4.8 | 14.5 | 0.00 | 0.71 | 0.00 | 77 | 1011.7 |
| 20260903204533 | 15 | 308 | 8.0 | 17.7 | 0.00 | 0.76 | 0.00 | 79 | 1011.7 |
| 20260903203030 | 13 | 311 | 8.0 | 17.7 | 0.00 | 0.79 | 0.00 | 81 | 1011.8 |
| 20260903201535 | 13 | 300 | 4.8 | 12.9 | 0.00 | 0.81 | 0.00 | 80 | 1011.9 |
| 20260903200030 | 13 | 290 | 6.4 | 16.1 | 0.00 | 0.84 | 0.00 | 79 | 1011.9 |
| 20260903194643 | 15 | 329 | 8.0 | 16.1 | 0.00 | 0.84 | 0.00 | 78 | 1012.0 |
| 20260903193030 | 15 | 312 | 4.8 | 14.5 | 0.00 | 0.84 | 0.00 | 80 | 1012.2 |
| 20260903191531 | 15 | 353 | 8.0 | 14.5 | 0.00 | 0.84 | 0.00 | 81 | 1012.3 |
| 20260903190031 | 13 | 339 | 6.4 | 12.9 | 0.00 | 0.84 | 0.00 | 81 | 1012.5 |
| 20260903184531 | 12 | 15 | 6.4 | 11.3 | 0.00 | 0.84 | 0.00 | 81 | 1012.6 |
| 20260903183029 | 12 | 12 | 4.8 | 8.0 | 0.00 | 0.84 | 0.00 | 82 | 1012.6 |
| 20260903181535 | 12 | 319 | 3.2 | 9.7 | 0.00 | 0.84 | 0.00 | 84 | 1012.5 |
| 20260903180031 | 12 | 331 | 3.2 | 11.3 | 0.00 | 0.84 | 0.00 | 85 | 1012.6 |
| 20260903173035 | 11 | 346 | 6.4 | 11.3 | 0.00 | 0.84 | 0.00 | 88 | 1012.5 |
| 20260903170032 | 11 | 6 | 4.8 | 9.7 | 0.00 | 0.84 | 0.00 | 89 | 1012.6 |
| 20260903164606 | 10 | 307 | 3.2 | 9.7 | 0.00 | 0.84 | 0.00 | 91 | 1012.6 |
| 20260903161531 | 9 | 292 | 0.0 | 8.0 | 0.00 | 0.84 | 0.00 | 92 | 1012.6 |
| 20260903160105 | 9 | 332 | 0.0 | 6.4 | 0.00 | 0.84 | 0.00 | 92 | 1012.7 |
| 20260903154535 | 9 | 278 | 1.6 | 8.0 | 0.00 | 0.84 | 0.00 | 92 | 1012.6 |
| 20260903153029 | 8 | 196 | 3.2 | 8.0 | 0.00 | 0.84 | 0.00 | 92 | 1012.5 |
| 20260903150035 | 7 | 113 | 3.2 | 9.7 | 0.00 | 0.84 | 0.00 | 94 | 1012.6 |
| 20260903144606 | 7 | 175 | 4.8 | 11.3 | 0.00 | 0.84 | 0.00 | 95 | 1012.4 |
| 20260903143030 | 7 | 145 | 3.2 | 8.0 | 0.00 | 0.84 | 0.00 | 95 | 1012.3 |
| 20260903140044 | 6 | 155 | 6.4 | 11.3 | 0.00 | 0.84 | 0.00 | 94 | 1012.0 |
| 20260903134531 | 6 | 142 | 6.4 | 9.7 | 0.00 | 0.84 | 0.00 | 94 | 1012.0 |
| 20260903133106 | 6 | 133 | 3.2 | 9.7 | 0.00 | 0.84 | 0.00 | 94 | 1012.0 |
| 20260903130034 | 6 | 166 | 1.6 | 8.0 | 0.00 | 0.84 | 0.00 | 95 | 1011.9 |
| 20260903124529 | 6 | 165 | 4.8 | 12.9 | 0.00 | 0.84 | 0.00 | 95 | 1011.8 |
| 20260903121529 | 6 | 177 | 4.8 | 14.5 | 0.00 | 0.84 | 0.00 | 95 | 1011.8 |
| 20260903120034 | 6 | 185 | 8.0 | 12.9 | 0.00 | 0.84 | 0.00 | 95 | 1011.8 |
| 20260903114532 | 6 | 114 | 4.8 | 16.1 | 0.00 | 0.84 | 0.00 | 95 | 1011.8 |
| 20260903113036 | 6 | 145 | 3.2 | 6.4 | 0.00 | 0.84 | 0.00 | 95 | 1011.9 |
| 20260903110032 | 5 | 163 | 6.4 | 14.5 | 0.00 | 0.84 | 0.00 | 94 | 1011.5 |
| 20260903104532 | 5 | 145 | 6.4 | 12.9 | 0.00 | 0.84 | 0.00 | 94 | 1011.4 |
| 20260903103033 | 5 | 160 | 8.0 | 12.9 | 0.00 | 0.84 | 0.00 | 94 | 1011.3 |
| 20260903101530 | 5 | 149 | 4.8 | 9.7 | 0.00 | 0.84 | 0.00 | 94 | 1011.3 |
| 20260903100036 | 5 | 153 | 4.8 | 9.7 | 0.00 | 0.84 | 0.00 | 94 | 1011.4 |
| 20260903093036 | 5 | 179 | 4.8 | 12.9 | 0.00 | 0.84 | 0.00 | 94 | 1011.3 |
| 20260903091532 | 6 | 157 | 6.4 | 12.9 | 0.00 | 0.84 | 0.00 | 94 | 1011.3 |
| 20260903090036 | 5 | 143 | 6.4 | 11.3 | 0.00 | 0.84 | 0.00 | 93 | 1011.5 |
| 20260903084534 | 6 | 148 | 6.4 | 9.7 | 0.00 | 0.84 | 0.00 | 93 | 1011.5 |
| 20260903083036 | 6 | 158 | 6.4 | 11.3 | 0.00 | 0.84 | 0.00 | 93 | 1011.4 |
| 20260903081531 | 5 | 154 | 6.4 | 12.9 | 0.00 | 0.84 | 0.00 | 93 | 1011.4 |
| 20260903080142 | 6 | 156 | 6.4 | 9.7 | 0.00 | 0.84 | 0.00 | 93 | 1011.3 |
| 20260903074537 | 6 | 167 | 4.8 | 8.0 | 0.00 | 0.84 | 0.00 | 92 | 1011.2 |
| 20260903073036 | 6 | 171 | 4.8 | 8.0 | 0.00 | 0.84 | 0.00 | 92 | 1011.1 |
| 20260903071653 | 6 | 339 | 1.6 | 9.7 | 0.00 | 0.84 | 0.00 | 92 | 1011.1 |
| 20260903070035 | 6 | 202 | 0.0 | 6.4 | 0.00 | 0.84 | 0.00 | 91 | 1011.0 |
| 20260903063142 | 7 | 328 | 4.8 | 11.3 | 0.00 | 0.84 | 0.84 | 90 | 1011.0 |
| 20260903061536 | 7 | 167 | 4.8 | 9.7 | 0.00 | 0.84 | 0.84 | 90 | 1011.0 |
| 20260903060036 | 8 | 346 | 3.2 | 9.7 | 0.00 | 0.84 | 0.84 | 90 | 1010.9 |
| 20260903054531 | 8 | 316 | 9.7 | 19.3 | 0.00 | 0.84 | 0.84 | 90 | 1010.9 |
| 20260903053030 | 8 | 359 | 4.8 | 12.9 | 0.00 | 0.84 | 0.84 | 89 | 1010.9 |
| 20260903051537 | 9 | 352 | 4.8 | 12.9 | 0.00 | 0.84 | 0.84 | 88 | 1010.9 |
| 20260903050036 | 9 | 344 | 9.7 | 20.9 | 0.00 | 0.84 | 0.84 | 89 | 1010.8 |
| 20260903044605 | 9 | 16 | 11.3 | 24.1 | 0.00 | 0.84 | 0.84 | 90 | 1010.6 |
| 20260903043031 | 9 | 60 | 8.0 | 19.3 | 0.00 | 0.84 | 0.84 | 89 | 1010.4 |
| 20260903041531 | 9 | 233 | 11.3 | 33.8 | 0.03 | 0.84 | 0.84 | 91 | 1010.2 |
| 20260903034531 | 10 | 263 | 6.4 | 22.5 | 0.05 | 0.84 | 0.81 | 94 | 1010.0 |
| 20260903031536 | 10 | 234 | 4.8 | 16.1 | 0.15 | 0.81 | 0.79 | 94 | 1010.2 |
| 20260903030036 | 10 | 292 | 3.2 | 11.3 | 0.23 | 0.79 | 0.79 | 94 | 1010.1 |
| 20260903024532 | 11 | 349 | 4.8 | 9.7 | 0.28 | 0.79 | 0.76 | 94 | 1010.1 |
| 20260903023030 | 11 | 354 | 4.8 | 11.3 | 0.28 | 0.76 | 0.66 | 94 | 1010.1 |
| 20260903021532 | 11 | 260 | 3.2 | 16.1 | 0.18 | 0.66 | 0.56 | 94 | 1010.0 |
| 20260903020129 | 12 | 308 | 4.8 | 12.9 | 0.13 | 0.56 | 0.51 | 94 | 1009.5 |
| 20260903014531 | 12 | 267 | 1.6 | 8.0 | 0.13 | 0.51 | 0.48 | 93 | 1009.1 |
| 20260903013033 | 11 | 307 | 1.6 | 9.7 | 0.13 | 0.48 | 0.48 | 93 | 1009.1 |
| 20260903010037 | 12 | 301 | 1.6 | 6.4 | 0.18 | 0.43 | 0.38 | 93 | 1009.3 |
| 20260903004536 | 12 | 253 | 3.2 | 8.0 | 0.13 | 0.38 | 0.36 | 93 | 1009.4 |
| 20260903003033 | 12 | 295 | 3.2 | 9.7 | 0.13 | 0.36 | 0.36 | 92 | 1009.3 |
| 20260902234608 | 12 | 8 | 3.2 | 8.0 | 0.05 | 0.25 | 0.23 | 91 | 1009.3 |
| 20260902231535 | 12 | 306 | 3.2 | 8.0 | 0.08 | 0.23 | 0.20 | 91 | 1009.4 |
| 20260902230038 | 12 | 296 | 4.8 | 8.0 | 0.05 | 0.20 | 0.20 | 91 | 1009.6 |